When you browse on this site, cookies collect data to enhance your experience and personalize the content and advertising you see.
Visit our Privacy Policy to learn more. By continuing to use the site, you agree to this use of cookies and data.
  • In Deutschland
  • Länderverzeichnis
  • Für 7 Tage
  • Wassertemperatur
  • Wetterkarte
  • Widgets
  • user-avatar
    Anmelden

    Stündliche Wetter Klagenfurt

    Heute, 4 Juni, Donnerstag

    Zeit Temperatur Niederschläge Wind Luftdruck Luftfeuchtigkeit
    00:00 +11°C° 0.2 mm 1 m/S 681 mmHg 96%
    01:00 +11°C° 0.2 mm 1 m/S 681 mmHg 97%
    02:00 +11°C° 0 mm 1 m/S 681 mmHg 97%
    03:00 +11°C° 0 mm 1 m/S 680 mmHg 97%
    04:00 +10°C° 0 mm 1 m/S 680 mmHg 98%
    05:00 +11°C° 0 mm 1 m/S 680 mmHg 96%
    06:00 +13°C° 0 mm 1 m/S 680 mmHg 93%
    07:00 +14°C° 0 mm 1 m/S 680 mmHg 91%
    08:00 +15°C° 0.2 mm 2 m/S 680 mmHg 86%
    09:00 +14°C° 0.2 mm 3 m/S 680 mmHg 81%
    10:00 +16°C° 0.2 mm 3 m/S 680 mmHg 76%
    11:00 +16°C° 0.3 mm 3 m/S 680 mmHg 77%
    12:00 +16°C° 0.3 mm 3 m/S 680 mmHg 77%
    13:00 +15°C° 0.3 mm 4 m/S 679 mmHg 78%
    14:00 +14°C° 1.1 mm 3 m/S 679 mmHg 83%
    15:00 +13°C° 1.1 mm 3 m/S 679 mmHg 87%
    16:00 +13°C° 1.1 mm 2 m/S 678 mmHg 92%
    17:00 +13°C° 1.3 mm 2 m/S 678 mmHg 94%
    18:00 +13°C° 1.3 mm 2 m/S 677 mmHg 96%
    19:00 +13°C° 1.3 mm 2 m/S 677 mmHg 97%
    20:00 +12°C° 1.6 mm 1 m/S 677 mmHg 98%
    21:00 +12°C° 1.6 mm 1 m/S 677 mmHg 98%
    22:00 +12°C° 1.6 mm 1 m/S 677 mmHg 98%
    23:00 +12°C° 3.1 mm 1 m/S 676 mmHg 98%

    Morgen, 5 Juni, Freitag

    Zeit Temperatur Niederschläge Wind Luftdruck Luftfeuchtigkeit
    00:00 +13°C° 3.1 mm 2 m/S 676 mmHg 99%
    01:00 +13°C° 3.1 mm 2 m/S 676 mmHg 99%
    02:00 +13°C° 5.5 mm 2 m/S 676 mmHg 99%
    03:00 +13°C° 5.5 mm 2 m/S 676 mmHg 99%
    04:00 +13°C° 5.5 mm 2 m/S 676 mmHg 99%
    05:00 +13°C° 2.3 mm 1 m/S 676 mmHg 98%
    06:00 +13°C° 2.3 mm 1 m/S 676 mmHg 98%
    07:00 +13°C° 2.3 mm 1 m/S 676 mmHg 98%
    08:00 +13°C° 1.5 mm 1 m/S 677 mmHg 98%
    09:00 +13°C° 1.5 mm 1 m/S 677 mmHg 97%
    10:00 +13°C° 1.5 mm 1 m/S 677 mmHg 97%
    11:00 +13°C° 1.1 mm 1 m/S 678 mmHg 95%
    12:00 +13°C° 1.1 mm 1 m/S 678 mmHg 94%
    13:00 +13°C° 1.1 mm 1 m/S 678 mmHg 93%
    14:00 +13°C° 0.4 mm 1 m/S 679 mmHg 90%
    15:00 +13°C° 0.4 mm 1 m/S 679 mmHg 87%
    16:00 +13°C° 0.4 mm 1 m/S 679 mmHg 83%
    17:00 +13°C° 0.1 mm 1 m/S 679 mmHg 85%
    18:00 +12°C° 0.1 mm 1 m/S 679 mmHg 87%
    19:00 +11°C° 0.1 mm 0 m/S 680 mmHg 89%
    20:00 +10°C° 0 mm 0 m/S 680 mmHg 88%
    21:00 +10°C° 0 mm 0 m/S 681 mmHg 87%
    22:00 +10°C° 0 mm 0 m/S 682 mmHg 86%
    23:00 +9°C° 0 mm 0 m/S 682 mmHg 88%

    übermorgen, 6 Juni, Samstag

    Zeit Temperatur Niederschläge Wind Luftdruck Luftfeuchtigkeit
    00:00 +9°C° 0 mm 0 m/S 682 mmHg 90%
    01:00 +9°C° 0 mm 0 m/S 682 mmHg 92%
    02:00 +9°C° 0 mm 0 m/S 682 mmHg 93%
    03:00 +9°C° 0 mm 0 m/S 683 mmHg 94%
    04:00 +9°C° 0 mm 0 m/S 683 mmHg 95%
    05:00 +10°C° 0 mm 0 m/S 683 mmHg 94%
    06:00 +10°C° 0 mm 0 m/S 683 mmHg 93%
    07:00 +11°C° 0 mm 0 m/S 683 mmHg 93%
    08:00 +12°C° 0.1 mm 0 m/S 684 mmHg 90%
    09:00 +13°C° 0.1 mm 0 m/S 684 mmHg 88%
    10:00 +14°C° 0.1 mm 0 m/S 684 mmHg 86%
    11:00 +16°C° 0.4 mm 1 m/S 684 mmHg 84%
    12:00 +16°C° 0.4 mm 1 m/S 684 mmHg 83%
    13:00 +17°C° 0.4 mm 2 m/S 684 mmHg 82%
    14:00 +18°C° 0.4 mm 2 m/S 684 mmHg 80%
    15:00 +18°C° 0.4 mm 2 m/S 684 mmHg 77%
    16:00 +18°C° 0.4 mm 2 m/S 684 mmHg 75%
    17:00 +17°C° 0.1 mm 2 m/S 684 mmHg 79%
    18:00 +16°C° 0.1 mm 2 m/S 684 mmHg 83%
    19:00 +15°C° 0.1 mm 1 m/S 684 mmHg 87%
    20:00 +14°C° 0 mm 1 m/S 684 mmHg 90%
    21:00 +12°C° 0 mm 1 m/S 684 mmHg 93%
    22:00 +11°C° 0 mm 1 m/S 684 mmHg 96%
    23:00 +11°C° 0 mm 1 m/S 684 mmHg 96%

    7 Juni, Sonntag

    Zeit Temperatur Niederschläge Wind Luftdruck Luftfeuchtigkeit
    00:00 +11°C° 0 mm 1 m/S 684 mmHg 96%
    01:00 +10°C° 0 mm 1 m/S 684 mmHg 96%
    02:00 +10°C° 0 mm 1 m/S 684 mmHg 96%
    03:00 +9°C° 0 mm 0 m/S 684 mmHg 96%
    04:00 +9°C° 0 mm 0 m/S 684 mmHg 97%
    05:00 +11°C° 0 mm 0 m/S 685 mmHg 94%
    06:00 +12°C° 0 mm 0 m/S 685 mmHg 91%
    07:00 +13°C° 0 mm 0 m/S 685 mmHg 88%
    08:00 +15°C° 0.3 mm 0 m/S 686 mmHg 85%
    09:00 +18°C° 0.3 mm 1 m/S 686 mmHg 83%
    10:00 +19°C° 0.3 mm 1 m/S 686 mmHg 80%
    11:00 +18°C° 1 mm 1 m/S 686 mmHg 84%
    12:00 +17°C° 1 mm 2 m/S 686 mmHg 88%
    13:00 +16°C° 1 mm 2 m/S 685 mmHg 92%
    14:00 +16°C° 0.7 mm 2 m/S 685 mmHg 91%
    15:00 +16°C° 0.7 mm 2 m/S 685 mmHg 91%
    16:00 +16°C° 0.7 mm 1 m/S 685 mmHg 91%
    17:00 +16°C° 0.8 mm 1 m/S 685 mmHg 92%
    18:00 +15°C° 0.8 mm 1 m/S 685 mmHg 94%
    19:00 +15°C° 0.8 mm 1 m/S 685 mmHg 95%
    20:00 +14°C° 3.3 mm 1 m/S 685 mmHg 97%
    21:00 +13°C° 3.3 mm 1 m/S 685 mmHg 98%
    22:00 +13°C° 3.3 mm 1 m/S 685 mmHg 99%
    23:00 +12°C° 1.1 mm 0 m/S 685 mmHg 99%

    8 Juni, Montag

    Zeit Temperatur Niederschläge Wind Luftdruck Luftfeuchtigkeit
    00:00 +12°C° 1.1 mm 0 m/S 685 mmHg 99%
    01:00 +12°C° 1.1 mm 0 m/S 685 mmHg 99%
    02:00 +12°C° 0.6 mm 0 m/S 685 mmHg 99%
    03:00 +12°C° 0.6 mm 0 m/S 685 mmHg 99%
    04:00 +12°C° 0.6 mm 0 m/S 684 mmHg 99%
    05:00 +12°C° 0.8 mm 0 m/S 685 mmHg 98%
    06:00 +12°C° 0.8 mm 0 m/S 685 mmHg 98%
    07:00 +13°C° 0.8 mm 0 m/S 685 mmHg 98%
    08:00 +13°C° 1.1 mm 0 m/S 685 mmHg 97%
    09:00 +13°C° 1.1 mm 0 m/S 686 mmHg 97%
    10:00 +13°C° 1.1 mm 0 m/S 686 mmHg 97%
    11:00 +13°C° 1.3 mm 0 m/S 686 mmHg 96%
    12:00 +15°C° 1.3 mm 1 m/S 686 mmHg 95%
    13:00 +16°C° 1.3 mm 1 m/S 686 mmHg 94%
    14:00 +16°C° 1 mm 1 m/S 686 mmHg 93%
    15:00 +16°C° 1 mm 1 m/S 686 mmHg 93%
    16:00 +16°C° 1 mm 1 m/S 686 mmHg 92%
    17:00 +15°C° 0.7 mm 1 m/S 686 mmHg 93%
    18:00 +14°C° 0.7 mm 1 m/S 686 mmHg 94%
    19:00 +14°C° 0.7 mm 1 m/S 686 mmHg 95%
    20:00 +13°C° 0.5 mm 1 m/S 686 mmHg 96%
    21:00 +13°C° 0.5 mm 1 m/S 687 mmHg 97%
    22:00 +12°C° 0.5 mm 1 m/S 687 mmHg 97%
    23:00 +12°C° 1.5 mm 1 m/S 687 mmHg 98%

    9 Juni, Dienstag

    Zeit Temperatur Niederschläge Wind Luftdruck Luftfeuchtigkeit
    00:00 +12°C° 1.5 mm 1 m/S 687 mmHg 98%
    01:00 +12°C° 1.5 mm 1 m/S 687 mmHg 99%
    02:00 +11°C° 1.9 mm 1 m/S 687 mmHg 99%
    03:00 +11°C° 1.9 mm 1 m/S 687 mmHg 99%
    04:00 +11°C° 1.9 mm 1 m/S 687 mmHg 99%
    05:00 +11°C° 0.9 mm 1 m/S 687 mmHg 99%
    06:00 +11°C° 0.9 mm 1 m/S 687 mmHg 99%
    07:00 +11°C° 0.9 mm 1 m/S 688 mmHg 98%
    08:00 +11°C° 0.8 mm 1 m/S 688 mmHg 98%
    09:00 +11°C° 0.8 mm 1 m/S 688 mmHg 98%
    10:00 +11°C° 0.8 mm 1 m/S 688 mmHg 97%
    11:00 +11°C° 1.2 mm 1 m/S 688 mmHg 97%
    12:00 +10°C° 1.2 mm 1 m/S 688 mmHg 97%
    13:00 +10°C° 1.2 mm 1 m/S 688 mmHg 96%
    14:00 +11°C° 0.3 mm 1 m/S 688 mmHg 93%
    15:00 +12°C° 0.3 mm 1 m/S 688 mmHg 89%
    16:00 +12°C° 0.3 mm 1 m/S 688 mmHg 85%
    17:00 +12°C° 0 mm 1 m/S 688 mmHg 86%
    18:00 +12°C° 0 mm 1 m/S 688 mmHg 86%
    19:00 +12°C° 0 mm 1 m/S 688 mmHg 86%
    20:00 +11°C° 0 mm 1 m/S 689 mmHg 88%
    21:00 +9°C° 0 mm 1 m/S 689 mmHg 90%
    22:00 +8°C° 0 mm 1 m/S 689 mmHg 92%
    23:00 +8°C° 0 mm 1 m/S 689 mmHg 92%
    Mehr zeigen